FENGYUN 1C DEB, 30127

Orbit data source: Space-Track

FENGYUN 1C DEB, 30127 is space debris in SSO originally from a launch on Mon, 10 May 1999 UTC launched from the Taiyaun Space Center, China (TSC). Fengyun 1C debris stems from the Chinese weather satellite Fengyun-1C, which was intentionally destroyed by a Chinese anti-satellite missile in 2007. This event dramatically increased the amount of space debris, with thousands of trackable fragments posing hazards to satellites and human spaceflight. The Fengyun 1C debris cloud has become a focal point in discussions about space sustainability and the need for international regulations to prevent the creation of new debris.

Loading next visibility...
Identifier
30127, 1999-025SG
Orbit
SSO
Country
Flag of CNCN / PRC
Related business
Manufacturer
Unknown
Mission
Spacecraft
Bus & Motor
Unknown
Mass
Unknown
Launch date (UTC)
1999-05-10 (27 years ago)
Launch vehicle
Unknown
Launch site
Taiyaun Space Center, China (TSC)
Object type
Payload
Rocket body
Debris
Shape & HBR
Unknown shape, 0.1 m
Radar Cross Section
Medium (>0.1 m² and <1 m²)

Expand to show TLE details & history
Last TLE update: 3 days ago

TLE from 3 days ago
0 FENGYUN 1C DEB
1 30127U 99025SG  26171.03264114  .00004624  00000-0  14030-2 0  9992
2 30127  98.2009  24.5868 0079283 229.0466 130.3844 14.40832363999592
Epoch: 2026-06-20T00:47Z
TLE epoch observation values (Epoch: 2026-06-20T00:47:00.194Z)
Latitude
-0.00003°
Longitude
104.58291°
Altitude
795.62 km
Speed
7.436 km/s
True Right ascension
01h 38m 20s
True Declination
0° 00' 00"
Sunlit
Object was in daylight at epoch
Visualization orbit readout
Latitude
Unknown
Longitude
Unknown
Altitude
Unknown
Speed
Unknown
Apparent Right ascension
Unknown
Apparent Declination
Unknown
Sunlit
N/A
Visualization observer readout
Local Sidereal Time
14:12:00
Azimuth
Unknown
Elevation
Unknown
Doppler factor
Unknown
Orbital elements
Apogee altitude
809.393 km
Perigee altitude
696.32 km
Semi-major axis
7,130.993 km
Eccentricity
0.00793
Inclination
98.2009°
RAAN
24.5868°
Arg. of periapsis
229.0466°
True anomaly
131.072°
Mean anomaly
130.3844°
Eccentric anomaly
130.72864°
Mean motion
3.60428 °/min
Orbital period
99.88 mins
BSTAR
0.001403
Loading maneuver chart data...
Computing Atmospheric mass density...

Documentation

Showing up to 5 results
|